Regional Weather Roundup
Issued by NWS

Home | Current Version | Previous Version | Graphics & Text | Print | Product List | Glossary Off
Versions: 1 2 3 4 5 6 7 8 9 10 11 12 13 14 15 16 17 18 19 20 21 22 23 24 25 26 27 28 29 30 31 32 33 34 35 36 37 38 39 40 41 42 43 44 45 46 47 48 49 50

000
ASUS43 KDMX 280204
RWRIA

WEATHER ROUNDUP FOR IOWA
NATIONAL WEATHER SERVICE DES MOINES IA
  ISSUED BY NWS QUAD CITIES IA IL
800 PM CST FRI FEB 27 2015

NOTE: "FAIR" INDICATES FEW OR NO CLOUDS BELOW 12,000 FEET WITH NO
SIGNIFICANT WEATHER AND/OR OBSTRUCTIONS TO VISIBILITY.

* - THESE STATIONS ARE NOT NWS STATIONS...THUS NOT UNDER NWS
QUALITY CONTROL.  THEY ALSO DO NOT REPORT WEATHER SUCH
AS PRECIPITATION OR FOG.

IAZ001>003-012>014-020>022-031>034-043>046-280300-
   NORTHWEST IOWA

CITY           SKY/WX    TMP DP  RH WIND       PRES   REMARKS
CARROLL *      CLEAR      1  -6  71 SE5       30.54R WCI  -8
CHEROKEE *     CLEAR      0  -7  74 S3        30.52R
DENNISON *     CLEAR      3  -4  72 SE6       30.51R WCI  -8
LE MARS *      CLEAR      7   0  72 SE10      30.50R WCI  -8
ORANGE CITY *  CLEAR      7  -2  66 SE6       30.47S WCI  -3
SHELDON *      CLEAR      3  -4  72 S9        30.47R WCI -11
SIOUX CITY     CLEAR     11   2  67 SE12      30.50R WCI  -3
SPENCER        CLEAR     -5 -10  79 S8        30.50R WCI -20
STORM LAKE *   CLEAR      3  -6  66 S9        30.50S WCI -11
$$

IAZ055>058-069>071-079>083-090>094-280300-
   SOUTHWEST IOWA

CITY           SKY/WX    TMP DP  RH WIND       PRES   REMARKS
ATLANTIC *     CLEAR      5  -2  72 NE3       30.54R
AUDUBON *      CLEAR     -2  -9  71 CALM      30.53S
CLARINDA *     CLEAR     12   1  62 CALM      30.57R
COUNCIL BLFS * PTCLDY    12   3  67 SE5       30.50S WCI   4
CRESTON *      CLEAR      7   0  72 SE6       30.54S WCI  -3
HARLAN *       CLEAR      5   0  78 CALM      30.56S
LAMONI         PTCLDY     9   0  67 E6        30.56R WCI  -1
RED OAK *      CLEAR     10   3  72 N5        30.54S WCI   2
SHENANDOAH *   CLEAR     10   1  67 SE5       30.56R WCI   2
$$

IAZ047>049-059>061-072>074-084-280300-
   CENTRAL IOWA

CITY           SKY/WX    TMP DP  RH WIND       PRES   REMARKS
AMES           CLEAR      1  -5  75 E3        30.58R
ANKENY *       CLEAR      5  -4  66 CALM      30.60R
BOONE *        CLEAR      5  -2  72 S6        30.55R WCI  -6
CHARITON *     CLEAR      7  -4  61 SE5       30.58S WCI  -2
DES MOINES     PTCLDY    10  -1  61 E5        30.59R WCI   2
GRINNELL *     CLEAR      1  -4  78 E5        30.60R WCI  -8
KNOXVILLE *    CLEAR      5  -4  66 E6        30.59R WCI  -6
MARSHALLTOWN   MOCLDY    -3  -8  79 SE6       30.58R WCI -15
NEWTON *       CLEAR      1  -6  71 E5        30.60R WCI  -8
PELLA *        CLEAR      3  -1  83 CALM      30.62S
PERRY *          N/A      6   1  81 SE6       30.56S WCI  -5
$$

IAZ004>006-015-016-023>025-035-036-280300-
   NORTH CENTRAL IOWA

CITY           SKY/WX    TMP DP  RH WIND       PRES   REMARKS
ALGONA *       CLEAR      1  -4  78 S9        30.53S WCI -14
CLARION *      CLEAR     -4  -8  84 SE8       30.55S WCI -19
ESTHERVILLE    CLEAR      0  -5  79 S9        30.49R WCI -15
FORT DODGE *   FAIR       0  -8  71 CALM      30.55S
MASON CITY     PTCLDY    -6  -9  86 S6        30.55R WCI -19
FOREST CITY *  FAIR      -6 -11  77 S5        30.53S WCI -17
WEBSTER CITY * CLEAR      3  -4  72 S7        30.54S WCI  -9
IOWA FALLS *   FAIR      -2  -6  82 SE5       30.57R WCI -12
$$

IAZ007>011-017>019-026>030-037>042-050>054-066-280300-
   NORTHEAST IOWA

CITY           SKY/WX    TMP DP  RH WIND       PRES   REMARKS
CEDAR RAPIDS   MOCLDY    -4  -9  79 CALM      30.60R
CHARLES CITY * MOCLDY    -2  -8  78 S7        30.56S WCI -16
CLINTON *      MOCLDY     0  -9  65 CALM      30.65S
DECORAH *      MOCLDY     0  -9  65 CALM      30.55R
DUBUQUE        PTCLDY    -6 -13  71 SW3       30.58S
MONTICELLO *   MOCLDY    -9 -15  77 CALM      30.61F
OELWEIN *      MOCLDY    -6 -11  77 S6        30.58S WCI -18
WATERLOO       MOCLDY   -12 -16  82 CALM      30.60R
$$

IAZ064-065-067-068-078-280300-
   EAST CENTRAL IOWA

CITY           SKY/WX    TMP DP  RH WIND       PRES   REMARKS
DAVENPORT      PTCLDY    -4 -11  72 CALM      30.64R
IOWA CITY      MOCLDY    -1  -4  87 SE3       30.66R
MT. PLEASANT * MOCLDY     1  -7  71 E5        30.64R WCI  -9
MUSCATINE *    MOCLDY     0  -6  78 CALM      30.67R
QUAD CITIES    MOCLDY    -4 -12  68 CALM      30.65R
$$

IAZ062-063-075>077-085>089-095>099-280300-
   SOUTHEAST IOWA

CITY           SKY/WX    TMP DP  RH WIND       PRES   REMARKS
BURLINGTON     MOCLDY     2  -5  72 SE3       30.64R
FAIRFIELD *    PTCLDY     1  -8  66 E6        30.63R WCI -10
FORT MADISON * MOCLDY     3  -4  72 CALM      30.65R
KEOKUK *       MOCLDY     9   0  66 CALM      30.64S
OSKALOOSA *    FAIR       2  -4  74 E6        30.62S WCI  -9
CENTERVILLE *  FAIR       7   0  72 E5        30.60R WCI  -2
OTTUMWA        CLEAR      4  -3  73 E5        30.61R WCI  -5
WASHINGTON *   PTCLDY     1  -2  85 SE3       30.64R
$$

ABBREVIATIONS USED IN REMARKS
   TC - TEMPERATURES IN CELSIUS
  WCI - WIND CHILL INDEX
   HX - HEAT INDEX
  VSB - VISIBILITY
$$


USA.gov is the U.S. government's official web portal to all federal, state and local government web resources and services.